Year,Month,Day,Hour,Minute,Value (Times are PST for temperature in C)
2012,07,08,00,00,15.90
2012,07,08,00,01,15.90
2012,07,08,00,02,15.90
2012,07,08,00,03,15.90
2012,07,08,00,04,15.90
2012,07,08,00,05,15.80
2012,07,08,00,06,15.80
2012,07,08,00,07,15.80
2012,07,08,00,08,15.80
2012,07,08,00,09,15.80
2012,07,08,00,10,15.80
2012,07,08,00,11,15.80
2012,07,08,00,12,15.80
2012,07,08,00,13,15.80
2012,07,08,00,14,15.80
2012,07,08,00,15,15.80
2012,07,08,00,16,15.70
2012,07,08,00,17,15.70
2012,07,08,00,18,15.70
2012,07,08,00,19,15.70
2012,07,08,00,20,15.70
2012,07,08,00,21,15.70
2012,07,08,00,22,15.70
2012,07,08,00,23,15.70
2012,07,08,00,24,15.60
2012,07,08,00,25,15.60
2012,07,08,00,26,15.60
2012,07,08,00,27,15.60
2012,07,08,00,28,15.60
2012,07,08,00,29,15.60
2012,07,08,00,30,15.60
2012,07,08,00,31,15.60
2012,07,08,00,32,15.60
2012,07,08,00,33,15.50
2012,07,08,00,34,15.50
2012,07,08,00,35,15.50
2012,07,08,00,36,15.50
2012,07,08,00,37,15.50
2012,07,08,00,38,15.50
2012,07,08,00,39,15.40
2012,07,08,00,40,15.40
2012,07,08,00,41,15.40
2012,07,08,00,42,15.40
2012,07,08,00,43,15.40
2012,07,08,00,44,15.40
2012,07,08,00,45,15.40
2012,07,08,00,46,15.30
2012,07,08,00,47,15.30
2012,07,08,00,48,15.30
2012,07,08,00,49,15.30
2012,07,08,00,50,15.30
2012,07,08,00,51,15.30
2012,07,08,00,52,15.30
2012,07,08,00,53,15.20
2012,07,08,00,54,15.20
2012,07,08,00,55,15.20
2012,07,08,00,56,15.20
2012,07,08,00,57,15.20
2012,07,08,00,58,15.20
2012,07,08,00,59,15.10
2012,07,08,01,00,15.10
2012,07,08,01,01,15.10
2012,07,08,01,02,15.10
2012,07,08,01,03,15.10
2012,07,08,01,04,15.10
2012,07,08,01,05,15.10
2012,07,08,01,06,15.10
2012,07,08,01,07,15.10
2012,07,08,01,08,15.10
2012,07,08,01,09,15.10
2012,07,08,01,10,15.10
2012,07,08,01,11,15.10
2012,07,08,01,12,15.00
2012,07,08,01,13,15.00
2012,07,08,01,14,15.00
2012,07,08,01,15,15.00
2012,07,08,01,16,15.00
2012,07,08,01,17,15.00
2012,07,08,01,18,15.00
2012,07,08,01,19,15.00
2012,07,08,01,20,14.90
2012,07,08,01,21,14.90
2012,07,08,01,22,14.90
2012,07,08,01,23,14.90
2012,07,08,01,24,14.90
2012,07,08,01,25,14.90
2012,07,08,01,26,14.90
2012,07,08,01,27,14.80
2012,07,08,01,28,14.80
2012,07,08,01,29,14.80
2012,07,08,01,30,14.80
2012,07,08,01,31,14.80
2012,07,08,01,32,14.80
2012,07,08,01,33,14.80
2012,07,08,01,34,14.70
2012,07,08,01,35,14.70
2012,07,08,01,36,14.70
2012,07,08,01,37,14.70
2012,07,08,01,38,14.70
2012,07,08,01,39,14.70
2012,07,08,01,40,14.70
2012,07,08,01,41,14.70
2012,07,08,01,42,14.70
2012,07,08,01,43,14.70
2012,07,08,01,44,14.70
2012,07,08,01,45,14.70
2012,07,08,01,46,14.70
2012,07,08,01,47,14.70
2012,07,08,01,48,14.70
2012,07,08,01,49,14.70
2012,07,08,01,50,14.60
2012,07,08,01,51,14.60
2012,07,08,01,52,14.60
2012,07,08,01,53,14.60
2012,07,08,01,54,14.60
2012,07,08,01,55,14.60
2012,07,08,01,56,14.60
2012,07,08,01,57,14.60
2012,07,08,01,58,14.60
2012,07,08,01,59,14.60
2012,07,08,02,00,14.50
2012,07,08,02,01,14.50
2012,07,08,02,02,14.50
2012,07,08,02,03,14.50
2012,07,08,02,04,14.50
2012,07,08,02,05,14.50
2012,07,08,02,06,14.50
2012,07,08,02,07,14.50
2012,07,08,02,08,14.50
2012,07,08,02,09,14.40
2012,07,08,02,10,14.40
2012,07,08,02,11,14.40
2012,07,08,02,12,14.40
2012,07,08,02,13,14.40
2012,07,08,02,14,14.40
2012,07,08,02,15,14.40
2012,07,08,02,16,14.40
2012,07,08,02,17,14.40
2012,07,08,02,18,14.40
2012,07,08,02,19,14.40
2012,07,08,02,20,14.40
2012,07,08,02,21,14.40
2012,07,08,02,22,14.30
2012,07,08,02,23,14.30
2012,07,08,02,24,14.30
2012,07,08,02,25,14.30
2012,07,08,02,26,14.30
2012,07,08,02,27,14.30
2012,07,08,02,28,14.30
2012,07,08,02,29,14.30
2012,07,08,02,30,14.30
2012,07,08,02,31,14.30
2012,07,08,02,32,14.30
2012,07,08,02,33,14.30
2012,07,08,02,34,14.30
2012,07,08,02,35,14.30
2012,07,08,02,36,14.20
2012,07,08,02,37,14.20
2012,07,08,02,38,14.20
2012,07,08,02,39,14.20
2012,07,08,02,40,14.20
2012,07,08,02,41,14.20
2012,07,08,02,42,14.20
2012,07,08,02,43,14.20
2012,07,08,02,44,14.20
2012,07,08,02,45,14.10
2012,07,08,02,46,14.10
2012,07,08,02,47,14.10
2012,07,08,02,48,14.10
2012,07,08,02,49,14.10
2012,07,08,02,50,14.10
2012,07,08,02,51,14.00
2012,07,08,02,52,14.00
2012,07,08,02,53,14.00
2012,07,08,02,54,13.90
2012,07,08,02,55,13.90
2012,07,08,02,56,13.90
2012,07,08,02,57,13.90
2012,07,08,02,58,13.90
2012,07,08,02,59,13.90
2012,07,08,03,00,13.80
2012,07,08,03,01,13.80
2012,07,08,03,02,13.80
2012,07,08,03,03,13.80
2012,07,08,03,04,13.80
2012,07,08,03,05,13.80
2012,07,08,03,06,13.80
2012,07,08,03,07,13.80
2012,07,08,03,08,13.80
2012,07,08,03,09,13.80
2012,07,08,03,10,13.80
2012,07,08,03,11,13.80
2012,07,08,03,12,13.80
2012,07,08,03,13,13.80
2012,07,08,03,14,13.80
2012,07,08,03,15,13.70
2012,07,08,03,16,13.70
2012,07,08,03,17,13.70
2012,07,08,03,18,13.70
2012,07,08,03,19,13.70
2012,07,08,03,20,13.70
2012,07,08,03,21,13.60
2012,07,08,03,22,13.60
2012,07,08,03,23,13.60
2012,07,08,03,24,13.60
2012,07,08,03,25,13.60
2012,07,08,03,26,13.60
2012,07,08,03,27,13.60
2012,07,08,03,28,13.60
2012,07,08,03,29,13.60
2012,07,08,03,30,13.60
2012,07,08,03,31,13.60
2012,07,08,03,32,13.60
2012,07,08,03,33,13.70
2012,07,08,03,34,13.70
2012,07,08,03,35,13.70
2012,07,08,03,36,13.70
2012,07,08,03,37,13.70
2012,07,08,03,38,13.70
2012,07,08,03,39,13.60
2012,07,08,03,40,13.60
2012,07,08,03,41,13.60
2012,07,08,03,42,13.60
2012,07,08,03,43,13.60
2012,07,08,03,44,13.60
2012,07,08,03,45,13.60
2012,07,08,03,46,13.60
2012,07,08,03,47,13.50
2012,07,08,03,48,13.50
2012,07,08,03,49,13.50
2012,07,08,03,50,13.40
2012,07,08,03,51,13.40
2012,07,08,03,52,13.40
2012,07,08,03,53,13.40
2012,07,08,03,54,13.30
2012,07,08,03,55,13.30
2012,07,08,03,56,13.30
2012,07,08,03,57,13.30
2012,07,08,03,58,13.30
2012,07,08,03,59,13.30
2012,07,08,04,00,13.30
2012,07,08,04,01,13.20
2012,07,08,04,02,13.20
2012,07,08,04,03,13.20
2012,07,08,04,04,13.20
2012,07,08,04,05,13.20
2012,07,08,04,06,13.20
2012,07,08,04,07,13.20
2012,07,08,04,08,13.20
2012,07,08,04,09,13.10
2012,07,08,04,10,13.10
2012,07,08,04,11,13.10
2012,07,08,04,12,13.10
2012,07,08,04,13,13.10
2012,07,08,04,14,13.10
2012,07,08,04,15,13.10
2012,07,08,04,16,13.10
2012,07,08,04,17,13.10
2012,07,08,04,18,13.10
2012,07,08,04,19,13.10
2012,07,08,04,20,13.10
2012,07,08,04,21,13.10
2012,07,08,04,22,13.10
2012,07,08,04,23,13.00
2012,07,08,04,24,13.00
2012,07,08,04,25,13.00
2012,07,08,04,26,13.00
2012,07,08,04,27,13.00
2012,07,08,04,28,12.90
2012,07,08,04,29,12.90
2012,07,08,04,30,12.90
2012,07,08,04,31,12.90
2012,07,08,04,32,12.90
2012,07,08,04,33,12.90
2012,07,08,04,34,12.90
2012,07,08,04,35,12.90
2012,07,08,04,36,12.90
2012,07,08,04,37,12.90
2012,07,08,04,38,12.90
2012,07,08,04,39,12.90
2012,07,08,04,40,12.90
2012,07,08,04,41,12.90
2012,07,08,04,42,12.80
2012,07,08,04,43,12.80
2012,07,08,04,44,12.80
2012,07,08,04,45,12.80
2012,07,08,04,46,12.80
2012,07,08,04,47,12.80
2012,07,08,04,48,12.80
2012,07,08,04,49,12.70
2012,07,08,04,50,12.70
2012,07,08,04,51,12.70
2012,07,08,04,52,12.70
2012,07,08,04,53,12.60
2012,07,08,04,54,12.60
2012,07,08,04,55,12.60
2012,07,08,04,56,12.60
2012,07,08,04,57,12.60
2012,07,08,04,58,12.60
2012,07,08,04,59,12.60
2012,07,08,05,00,12.60
2012,07,08,05,01,12.60
2012,07,08,05,02,12.60
2012,07,08,05,03,12.60
2012,07,08,05,04,12.50
2012,07,08,05,05,12.50
2012,07,08,05,06,12.50
2012,07,08,05,07,12.50
2012,07,08,05,08,12.50
2012,07,08,05,09,12.50
2012,07,08,05,10,12.50
2012,07,08,05,11,12.50
2012,07,08,05,12,12.50
2012,07,08,05,13,12.50
2012,07,08,05,14,12.50
2012,07,08,05,15,12.50
2012,07,08,05,16,12.40
2012,07,08,05,17,12.40
2012,07,08,05,18,12.40
2012,07,08,05,19,12.40
2012,07,08,05,20,12.40
2012,07,08,05,21,12.40
2012,07,08,05,22,12.40
2012,07,08,05,23,12.30
2012,07,08,05,24,12.30
2012,07,08,05,25,12.30
2012,07,08,05,26,12.30
2012,07,08,05,27,12.30
2012,07,08,05,28,12.30
2012,07,08,05,29,12.30
2012,07,08,05,30,12.30
2012,07,08,05,31,12.30
2012,07,08,05,32,12.40
2012,07,08,05,33,12.40
2012,07,08,05,34,12.40
2012,07,08,05,35,12.40
2012,07,08,05,36,12.40
2012,07,08,05,37,12.40
2012,07,08,05,38,12.40
2012,07,08,05,39,12.40
2012,07,08,05,40,12.40
2012,07,08,05,41,12.40
2012,07,08,05,42,12.40
2012,07,08,05,43,12.40
2012,07,08,05,44,12.40
2012,07,08,05,45,12.40
2012,07,08,05,46,12.40
2012,07,08,05,47,12.40
2012,07,08,05,48,12.40
2012,07,08,05,49,12.40
2012,07,08,05,50,12.40
2012,07,08,05,51,12.40
2012,07,08,05,52,12.40
2012,07,08,05,53,12.40
2012,07,08,05,54,12.40
2012,07,08,05,55,12.40
2012,07,08,05,56,12.40
2012,07,08,05,57,12.50
2012,07,08,05,58,12.50
2012,07,08,05,59,12.50
2012,07,08,06,00,12.50
2012,07,08,06,01,12.60
2012,07,08,06,02,12.60
2012,07,08,06,03,12.60
2012,07,08,06,04,12.70
2012,07,08,06,05,12.70
2012,07,08,06,06,12.70
2012,07,08,06,07,12.80
2012,07,08,06,08,12.80
2012,07,08,06,09,12.80
2012,07,08,06,10,12.80
2012,07,08,06,11,12.90
2012,07,08,06,12,12.90
2012,07,08,06,13,12.90
2012,07,08,06,14,12.90
2012,07,08,06,15,12.90
2012,07,08,06,16,12.90
2012,07,08,06,17,12.90
2012,07,08,06,18,13.00
2012,07,08,06,19,13.00
2012,07,08,06,20,13.00
2012,07,08,06,21,13.10
2012,07,08,06,22,13.10
2012,07,08,06,23,13.20
2012,07,08,06,24,13.20
2012,07,08,06,25,13.20
2012,07,08,06,26,13.30
2012,07,08,06,27,13.30
2012,07,08,06,28,13.40
2012,07,08,06,29,13.40
2012,07,08,06,30,13.40
2012,07,08,06,31,13.50
2012,07,08,06,32,13.50
2012,07,08,06,33,13.60
2012,07,08,06,34,13.70
2012,07,08,06,35,13.80
2012,07,08,06,36,13.90
2012,07,08,06,37,14.00
2012,07,08,06,38,14.10
2012,07,08,06,39,14.10
2012,07,08,06,40,14.20
2012,07,08,06,41,14.20
2012,07,08,06,42,14.30
2012,07,08,06,43,14.30
2012,07,08,06,44,14.40
2012,07,08,06,45,14.40
2012,07,08,06,46,14.50
2012,07,08,06,47,14.60
2012,07,08,06,48,14.60
2012,07,08,06,49,14.70
2012,07,08,06,50,14.80
2012,07,08,06,51,14.80
2012,07,08,06,52,14.90
2012,07,08,06,53,15.00
2012,07,08,06,54,15.00
2012,07,08,06,55,15.10
2012,07,08,06,56,15.20
2012,07,08,06,57,15.30
2012,07,08,06,58,15.40
2012,07,08,06,59,15.50
2012,07,08,07,00,15.60
2012,07,08,07,01,15.70
2012,07,08,07,02,15.80
2012,07,08,07,03,15.90
2012,07,08,07,04,16.00
2012,07,08,07,05,16.20
2012,07,08,07,06,16.30
2012,07,08,07,07,16.40
2012,07,08,07,08,16.50
2012,07,08,07,09,16.60
2012,07,08,07,10,16.70
2012,07,08,07,11,16.80
2012,07,08,07,12,16.90
2012,07,08,07,13,17.00
2012,07,08,07,14,17.10
2012,07,08,07,15,17.20
2012,07,08,07,16,17.30
2012,07,08,07,17,17.40
2012,07,08,07,18,17.50
2012,07,08,07,19,17.60
2012,07,08,07,20,17.60
2012,07,08,07,21,17.70
2012,07,08,07,22,17.80
2012,07,08,07,23,17.90
2012,07,08,07,24,17.90
2012,07,08,07,25,18.00
2012,07,08,07,26,18.00
2012,07,08,07,27,18.10
2012,07,08,07,28,18.10
2012,07,08,07,29,18.20
2012,07,08,07,30,18.20
2012,07,08,07,31,18.30
2012,07,08,07,32,18.30
2012,07,08,07,33,18.40
2012,07,08,07,34,18.50
2012,07,08,07,35,18.70
2012,07,08,07,36,18.80
2012,07,08,07,37,18.90
2012,07,08,07,38,19.10
2012,07,08,07,39,19.20
2012,07,08,07,40,19.30
2012,07,08,07,41,19.40
2012,07,08,07,42,19.50
2012,07,08,07,43,19.50
2012,07,08,07,44,19.60
2012,07,08,07,45,19.60
2012,07,08,07,46,19.70
2012,07,08,07,47,19.60
2012,07,08,07,48,19.60
2012,07,08,07,49,19.60
2012,07,08,07,50,19.60
2012,07,08,07,51,19.60
2012,07,08,07,52,19.60
2012,07,08,07,53,19.60
2012,07,08,07,54,19.60
2012,07,08,07,55,19.60
2012,07,08,07,56,19.70
2012,07,08,07,57,19.70
2012,07,08,07,58,19.70
2012,07,08,07,59,19.70
2012,07,08,08,00,19.60
2012,07,08,08,01,19.50
2012,07,08,08,02,19.40
2012,07,08,08,03,19.30
2012,07,08,08,04,19.30
2012,07,08,08,05,19.30
2012,07,08,08,06,19.30
2012,07,08,08,07,19.30
2012,07,08,08,08,19.30
2012,07,08,08,09,19.40
2012,07,08,08,10,19.40
2012,07,08,08,11,19.50
2012,07,08,08,12,19.50
2012,07,08,08,13,19.60
2012,07,08,08,14,19.60
2012,07,08,08,15,19.70
2012,07,08,08,16,19.80
2012,07,08,08,17,19.80
2012,07,08,08,18,19.90
2012,07,08,08,19,20.00
2012,07,08,08,20,20.10
2012,07,08,08,21,20.20
2012,07,08,08,22,20.30
2012,07,08,08,23,20.30
2012,07,08,08,24,20.40
2012,07,08,08,25,20.50
2012,07,08,08,26,20.50
2012,07,08,08,27,20.60
2012,07,08,08,28,20.60
2012,07,08,08,29,20.60
2012,07,08,08,30,20.60
2012,07,08,08,31,20.60
2012,07,08,08,32,20.50
2012,07,08,08,33,20.40
2012,07,08,08,34,20.30
2012,07,08,08,35,20.20
2012,07,08,08,36,20.10
2012,07,08,08,37,20.10
2012,07,08,08,38,20.10
2012,07,08,08,39,20.20
2012,07,08,08,40,20.20
2012,07,08,08,41,20.20
2012,07,08,08,42,20.30
2012,07,08,08,43,20.30
2012,07,08,08,44,20.40
2012,07,08,08,45,20.50
2012,07,08,08,46,20.60
2012,07,08,08,47,20.70
2012,07,08,08,48,20.80
2012,07,08,08,49,20.80
2012,07,08,08,50,20.90
2012,07,08,08,51,21.00
2012,07,08,08,52,21.20
2012,07,08,08,53,21.30
2012,07,08,08,54,21.40
2012,07,08,08,55,21.50
2012,07,08,08,56,21.60
2012,07,08,08,57,21.70
2012,07,08,08,58,21.80
2012,07,08,08,59,21.80
2012,07,08,09,00,21.90
2012,07,08,09,01,21.90
2012,07,08,09,02,21.80
2012,07,08,09,03,21.80
2012,07,08,09,04,21.80
2012,07,08,09,05,21.80
2012,07,08,09,06,21.80
2012,07,08,09,07,21.80
2012,07,08,09,08,21.80
2012,07,08,09,09,21.80
2012,07,08,09,10,21.90
2012,07,08,09,11,21.90
2012,07,08,09,12,22.00
2012,07,08,09,13,22.10
2012,07,08,09,14,22.10
2012,07,08,09,15,22.10
2012,07,08,09,16,22.10
2012,07,08,09,17,22.20
2012,07,08,09,18,22.30
2012,07,08,09,19,22.30
2012,07,08,09,20,22.30
2012,07,08,09,21,22.30
2012,07,08,09,22,22.30
2012,07,08,09,23,22.30
2012,07,08,09,24,22.40
2012,07,08,09,25,22.40
2012,07,08,09,26,22.40
2012,07,08,09,27,22.40
2012,07,08,09,28,22.50
2012,07,08,09,29,22.50
2012,07,08,09,30,22.50
2012,07,08,09,31,22.50
2012,07,08,09,32,22.50
2012,07,08,09,33,22.60
2012,07,08,09,34,22.60
2012,07,08,09,35,22.70
2012,07,08,09,36,22.70
2012,07,08,09,37,22.80
2012,07,08,09,38,22.80
2012,07,08,09,39,22.80
2012,07,08,09,40,22.70
2012,07,08,09,41,22.70
2012,07,08,09,42,22.60
2012,07,08,09,43,22.60
2012,07,08,09,44,22.50
2012,07,08,09,45,22.50
2012,07,08,09,46,22.40
2012,07,08,09,47,22.40
2012,07,08,09,48,22.50
2012,07,08,09,49,22.60
2012,07,08,09,50,22.60
2012,07,08,09,51,22.80
2012,07,08,09,52,22.80
2012,07,08,09,53,22.90
2012,07,08,09,54,23.00
2012,07,08,09,55,23.00
2012,07,08,09,56,23.10
2012,07,08,09,57,23.20
2012,07,08,09,58,23.30
2012,07,08,09,59,23.30
2012,07,08,10,00,23.30
2012,07,08,10,01,23.30
2012,07,08,10,02,23.30
2012,07,08,10,03,23.30
2012,07,08,10,04,23.30
2012,07,08,10,05,23.30
2012,07,08,10,06,23.30
2012,07,08,10,07,23.30
2012,07,08,10,08,23.20
2012,07,08,10,09,23.20
2012,07,08,10,10,23.10
2012,07,08,10,11,23.10
2012,07,08,10,12,23.10
2012,07,08,10,13,23.10
2012,07,08,10,14,23.20
2012,07,08,10,15,23.20
2012,07,08,10,16,23.30
2012,07,08,10,17,23.40
2012,07,08,10,18,23.50
2012,07,08,10,19,23.60
2012,07,08,10,20,23.70
2012,07,08,10,21,23.80
2012,07,08,10,22,23.80
2012,07,08,10,23,23.80
2012,07,08,10,24,23.80
2012,07,08,10,25,23.70
2012,07,08,10,26,23.60
2012,07,08,10,27,23.60
2012,07,08,10,28,23.60
2012,07,08,10,29,23.60
2012,07,08,10,30,23.60
2012,07,08,10,31,23.70
2012,07,08,10,32,23.70
2012,07,08,10,33,23.70
2012,07,08,10,34,23.70
2012,07,08,10,35,23.70
2012,07,08,10,36,23.70
2012,07,08,10,37,23.80
2012,07,08,10,38,23.80
2012,07,08,10,39,23.90
2012,07,08,10,40,24.10
2012,07,08,10,41,24.20
2012,07,08,10,42,24.30
2012,07,08,10,43,24.40
2012,07,08,10,44,24.40
2012,07,08,10,45,24.40
2012,07,08,10,46,24.30
2012,07,08,10,47,24.20
2012,07,08,10,48,24.20
2012,07,08,10,49,24.10
2012,07,08,10,50,23.90
2012,07,08,10,51,23.80
2012,07,08,10,52,23.60
2012,07,08,10,53,23.50
2012,07,08,10,54,23.40
2012,07,08,10,55,23.30
2012,07,08,10,56,23.30
2012,07,08,10,57,23.30
2012,07,08,10,58,23.30
2012,07,08,10,59,23.40
2012,07,08,11,00,23.40
2012,07,08,11,01,23.40
2012,07,08,11,02,23.30
2012,07,08,11,03,23.20
2012,07,08,11,04,23.10
2012,07,08,11,05,23.00
2012,07,08,11,06,22.90
2012,07,08,11,07,22.90
2012,07,08,11,08,22.80
2012,07,08,11,09,22.80
2012,07,08,11,10,22.80
2012,07,08,11,11,22.80
2012,07,08,11,12,22.80
2012,07,08,11,13,22.90
2012,07,08,11,14,22.90
2012,07,08,11,15,23.00
2012,07,08,11,16,23.00
2012,07,08,11,17,23.10
2012,07,08,11,18,23.20
2012,07,08,11,19,23.20
2012,07,08,11,20,23.20
2012,07,08,11,21,23.10
2012,07,08,11,22,23.10
2012,07,08,11,23,23.00
2012,07,08,11,24,23.00
2012,07,08,11,25,23.00
2012,07,08,11,26,23.00
2012,07,08,11,27,22.90
2012,07,08,11,28,22.90
2012,07,08,11,29,23.00
2012,07,08,11,30,23.00
2012,07,08,11,31,23.00
2012,07,08,11,32,23.00
2012,07,08,11,33,23.10
2012,07,08,11,34,23.20
2012,07,08,11,35,23.20
2012,07,08,11,36,23.20
2012,07,08,11,37,23.20
2012,07,08,11,38,23.20
2012,07,08,11,39,23.20
2012,07,08,11,40,23.20
2012,07,08,11,41,23.20
2012,07,08,11,42,23.20
2012,07,08,11,43,23.20
2012,07,08,11,44,23.30
2012,07,08,11,45,23.30
2012,07,08,11,46,23.30
2012,07,08,11,47,23.30
2012,07,08,11,48,23.30
2012,07,08,11,49,23.30
2012,07,08,11,50,23.30
2012,07,08,11,51,23.30
2012,07,08,11,52,23.20
2012,07,08,11,53,23.20
2012,07,08,11,54,23.20
2012,07,08,11,55,23.20
2012,07,08,11,56,23.20
2012,07,08,11,57,23.30
2012,07,08,11,58,23.30
2012,07,08,11,59,23.30
2012,07,08,12,00,23.30
2012,07,08,12,01,23.30
2012,07,08,12,02,23.30
2012,07,08,12,03,23.40
2012,07,08,12,04,23.50
2012,07,08,12,05,23.70
2012,07,08,12,06,23.80
2012,07,08,12,07,23.80
2012,07,08,12,08,23.80
2012,07,08,12,09,23.80
2012,07,08,12,10,23.80
2012,07,08,12,11,23.80
2012,07,08,12,12,23.80
2012,07,08,12,13,23.80
2012,07,08,12,14,23.90
2012,07,08,12,15,24.00
2012,07,08,12,16,23.90
2012,07,08,12,17,23.90
2012,07,08,12,18,23.90
2012,07,08,12,19,23.90
2012,07,08,12,20,23.90
2012,07,08,12,21,24.00
2012,07,08,12,22,24.00
2012,07,08,12,23,24.00
2012,07,08,12,24,24.00
2012,07,08,12,25,23.90
2012,07,08,12,26,23.80
2012,07,08,12,27,23.70
2012,07,08,12,28,23.70
2012,07,08,12,29,23.70
2012,07,08,12,30,23.70
2012,07,08,12,31,23.80
2012,07,08,12,32,23.80
2012,07,08,12,33,23.80
2012,07,08,12,34,23.80
2012,07,08,12,35,23.90
2012,07,08,12,36,24.00
2012,07,08,12,37,24.00
2012,07,08,12,38,24.10
2012,07,08,12,39,24.20
2012,07,08,12,40,24.30
2012,07,08,12,41,24.20
2012,07,08,12,42,24.20
2012,07,08,12,43,24.10
2012,07,08,12,44,24.20
2012,07,08,12,45,24.20
2012,07,08,12,46,24.20
2012,07,08,12,47,24.20
2012,07,08,12,48,24.30
2012,07,08,12,49,24.40
2012,07,08,12,50,24.40
2012,07,08,12,51,24.40
2012,07,08,12,52,24.40
2012,07,08,12,53,24.40
2012,07,08,12,54,24.40
2012,07,08,12,55,24.40
2012,07,08,12,56,24.50
2012,07,08,12,57,24.60
2012,07,08,12,58,24.70
2012,07,08,12,59,24.80
2012,07,08,13,00,25.00
2012,07,08,13,01,25.00
2012,07,08,13,02,25.00
2012,07,08,13,03,24.90
2012,07,08,13,04,24.90
2012,07,08,13,05,24.90
2012,07,08,13,06,25.00
2012,07,08,13,07,25.10
2012,07,08,13,08,25.20
2012,07,08,13,09,25.40
2012,07,08,13,10,25.50
2012,07,08,13,11,25.60
2012,07,08,13,12,25.70
2012,07,08,13,13,25.70
2012,07,08,13,14,25.70
2012,07,08,13,15,25.70
2012,07,08,13,16,25.60
2012,07,08,13,17,25.60
2012,07,08,13,18,25.60
2012,07,08,13,19,25.60
2012,07,08,13,20,25.60
2012,07,08,13,21,25.60
2012,07,08,13,22,25.60
2012,07,08,13,23,25.70
2012,07,08,13,24,25.70
2012,07,08,13,25,25.70
2012,07,08,13,26,25.70
2012,07,08,13,27,25.70
2012,07,08,13,28,25.80
2012,07,08,13,29,25.80
2012,07,08,13,30,25.90
2012,07,08,13,31,25.90
2012,07,08,13,32,25.90
2012,07,08,13,33,25.90
2012,07,08,13,34,25.90
2012,07,08,13,35,26.00
2012,07,08,13,36,26.00
2012,07,08,13,37,26.10
2012,07,08,13,38,26.10
2012,07,08,13,39,26.20
2012,07,08,13,40,26.20
2012,07,08,13,41,26.30
2012,07,08,13,42,26.40
2012,07,08,13,43,26.50
2012,07,08,13,44,26.50
2012,07,08,13,45,26.60
2012,07,08,13,46,26.60
2012,07,08,13,47,26.70
2012,07,08,13,48,26.60
2012,07,08,13,49,26.60
2012,07,08,13,50,26.50
2012,07,08,13,51,26.40
2012,07,08,13,52,26.30
2012,07,08,13,53,26.10
2012,07,08,13,54,26.00
2012,07,08,13,55,26.00
2012,07,08,13,56,25.90
2012,07,08,13,57,25.80
2012,07,08,13,58,25.70
2012,07,08,13,59,25.60
2012,07,08,14,00,25.50
2012,07,08,14,01,25.40
2012,07,08,14,02,25.30
2012,07,08,14,03,25.30
2012,07,08,14,04,25.30
2012,07,08,14,05,25.40
2012,07,08,14,06,25.50
2012,07,08,14,07,25.50
2012,07,08,14,08,25.50
2012,07,08,14,09,25.60
2012,07,08,14,10,25.60
2012,07,08,14,11,25.60
2012,07,08,14,12,25.50
2012,07,08,14,13,25.50
2012,07,08,14,14,25.40
2012,07,08,14,15,25.40
2012,07,08,14,16,25.40
2012,07,08,14,17,25.40
2012,07,08,14,18,25.30
2012,07,08,14,19,25.40
2012,07,08,14,20,25.40
2012,07,08,14,21,25.40
2012,07,08,14,22,25.50
2012,07,08,14,23,25.60
2012,07,08,14,24,25.70
2012,07,08,14,25,25.80
2012,07,08,14,26,25.90
2012,07,08,14,27,26.00
2012,07,08,14,28,26.00
2012,07,08,14,29,25.90
2012,07,08,14,30,25.90
2012,07,08,14,31,25.90
2012,07,08,14,32,26.00
2012,07,08,14,33,26.10
2012,07,08,14,34,26.10
2012,07,08,14,35,26.00
2012,07,08,14,36,25.90
2012,07,08,14,37,25.90
2012,07,08,14,38,25.80
2012,07,08,14,39,25.70
2012,07,08,14,40,25.60
2012,07,08,14,41,25.50
2012,07,08,14,42,25.50
2012,07,08,14,43,25.50
2012,07,08,14,44,25.50
2012,07,08,14,45,25.60
2012,07,08,14,46,25.60
2012,07,08,14,47,25.70
2012,07,08,14,48,25.70
2012,07,08,14,49,25.70
2012,07,08,14,50,25.70
2012,07,08,14,51,25.80
2012,07,08,14,52,25.70
2012,07,08,14,53,25.70
2012,07,08,14,54,25.70
2012,07,08,14,55,25.70
2012,07,08,14,56,25.70
2012,07,08,14,57,25.70
2012,07,08,14,58,25.80
2012,07,08,14,59,25.90
2012,07,08,15,00,26.00
2012,07,08,15,01,26.00
2012,07,08,15,02,26.00
2012,07,08,15,03,26.10
2012,07,08,15,04,26.20
2012,07,08,15,05,26.30
2012,07,08,15,06,26.30
2012,07,08,15,07,26.30
2012,07,08,15,08,26.30
2012,07,08,15,09,26.30
2012,07,08,15,10,26.40
2012,07,08,15,11,26.40
2012,07,08,15,12,26.40
2012,07,08,15,13,26.50
2012,07,08,15,14,26.60
2012,07,08,15,15,26.70
2012,07,08,15,16,26.80
2012,07,08,15,17,26.80
2012,07,08,15,18,26.80
2012,07,08,15,19,26.80
2012,07,08,15,20,26.70
2012,07,08,15,21,26.70
2012,07,08,15,22,26.60
2012,07,08,15,23,26.50
2012,07,08,15,24,26.40
2012,07,08,15,25,26.40
2012,07,08,15,26,26.40
2012,07,08,15,27,26.40
2012,07,08,15,28,26.40
2012,07,08,15,29,26.40
2012,07,08,15,30,26.40
2012,07,08,15,31,26.50
2012,07,08,15,32,26.50
2012,07,08,15,33,26.60
2012,07,08,15,34,26.60
2012,07,08,15,35,26.70
2012,07,08,15,36,26.70
2012,07,08,15,37,26.80
2012,07,08,15,38,26.80
2012,07,08,15,39,26.80
2012,07,08,15,40,26.80
2012,07,08,15,41,26.80
2012,07,08,15,42,26.80
2012,07,08,15,43,26.80
2012,07,08,15,44,26.90
2012,07,08,15,45,27.00
2012,07,08,15,46,27.10
2012,07,08,15,47,27.20
2012,07,08,15,48,27.20
2012,07,08,15,49,27.10
2012,07,08,15,50,27.10
2012,07,08,15,51,27.10
2012,07,08,15,52,27.10
2012,07,08,15,53,27.20
2012,07,08,15,54,27.30
2012,07,08,15,55,27.30
2012,07,08,15,56,27.30
2012,07,08,15,57,27.30
2012,07,08,15,58,27.20
2012,07,08,15,59,27.20
2012,07,08,16,00,27.20
2012,07,08,16,01,27.20
2012,07,08,16,02,27.20
2012,07,08,16,03,27.20
2012,07,08,16,04,27.20
2012,07,08,16,05,27.20
2012,07,08,16,06,27.30
2012,07,08,16,07,27.30
2012,07,08,16,08,27.30
2012,07,08,16,09,27.40
2012,07,08,16,10,27.40
2012,07,08,16,11,27.40
2012,07,08,16,12,27.30
2012,07,08,16,13,27.20
2012,07,08,16,14,27.20
2012,07,08,16,15,27.20
2012,07,08,16,16,27.30
2012,07,08,16,17,27.40
2012,07,08,16,18,27.50
2012,07,08,16,19,27.60
2012,07,08,16,20,27.70
2012,07,08,16,21,27.80
2012,07,08,16,22,27.90
2012,07,08,16,23,27.90
2012,07,08,16,24,27.90
2012,07,08,16,25,27.90
2012,07,08,16,26,27.90
2012,07,08,16,27,27.90
2012,07,08,16,28,27.80
2012,07,08,16,29,27.80
2012,07,08,16,30,27.80
2012,07,08,16,31,27.70
2012,07,08,16,32,27.70
2012,07,08,16,33,27.60
2012,07,08,16,34,27.60
2012,07,08,16,35,27.60
2012,07,08,16,36,27.50
2012,07,08,16,37,27.40
2012,07,08,16,38,27.40
2012,07,08,16,39,27.40
2012,07,08,16,40,27.40
2012,07,08,16,41,27.40
2012,07,08,16,42,27.40
2012,07,08,16,43,27.40
2012,07,08,16,44,27.30
2012,07,08,16,45,27.30
2012,07,08,16,46,27.40
2012,07,08,16,47,27.50
2012,07,08,16,48,27.60
2012,07,08,16,49,27.60
2012,07,08,16,50,27.60
2012,07,08,16,51,27.50
2012,07,08,16,52,27.50
2012,07,08,16,53,27.40
2012,07,08,16,54,27.30
2012,07,08,16,55,27.30
2012,07,08,16,56,27.30
2012,07,08,16,57,27.30
2012,07,08,16,58,27.20
2012,07,08,16,59,27.20
2012,07,08,17,00,27.30
2012,07,08,17,01,27.40
2012,07,08,17,02,27.50
2012,07,08,17,03,27.50
2012,07,08,17,04,27.60
2012,07,08,17,05,27.60
2012,07,08,17,06,27.50
2012,07,08,17,07,27.40
2012,07,08,17,08,27.40
2012,07,08,17,09,27.30
2012,07,08,17,10,27.30
2012,07,08,17,11,27.30
2012,07,08,17,12,27.30
2012,07,08,17,13,27.30
2012,07,08,17,14,27.30
2012,07,08,17,15,27.30
2012,07,08,17,16,27.20
2012,07,08,17,17,27.10
2012,07,08,17,18,27.10
2012,07,08,17,19,27.00